Location: Earls Croome
(52.0667°N, 2.2000°W)
Time: 15:34:23
(UTC+00:00)

CZ-4B DEB - Pass Details

Date: 17 November 2019
Orbit: 840 x 862 km, 99.1° (Epoch: 10 December)

Event Time Altitude Azimuth Distance (km) Brightness Sun altitude
Rises 06:00:59 0° 14° (NNE) 3,411 7.4 -13.7°
Reaches altitude 10° 06:03:21 10° 12° (NNE) 2,473 6.6 -13.4°
Maximum altitude 06:08:47 68° 291° (WNW) 909 4.1 -12.6°
Drops below altitude 10° 06:14:13 10° 209° (SSW) 2,465 6.5 -11.8°
Sets 06:16:35 0° 207° (SSW) 3,399 7.2 -11.4°
